Miscellaneous Local Product
Issued by NWS Hastings, NE

Home | Current Version | Previous Version | Graphics & Text | Print | Product List | Glossary On
Versions: 1 2 3 4 5 6 7 8 9 10 11 12 13 14 15 16 17 18 19 20 21 22 23 24 25 26 27 28 29 30 31 32 33 34 35 36 37 38 39 40 41 42 43 44 45 46 47 48 49 50
000
AXUS43 KGID 221902
MISGRI

GID CWA HOURLY WEATHER ROUNDUP
NATIONAL WEATHER SERVICE HASTINGS NE
200 PM CDT SUN APR 22 2018

NOTE: "FAIR" INDICATES FEW OR NO CLOUDS BELOW 12,000 FEET WITH NO
SIGNIFICANT WEATHER AND/OR OBSTRUCTIONS TO VISIBILITY.

...SOUTH CENTRAL NEBRASKA...

CITY           SKY/WX    TMP DP  RH WIND       PRES   REMARKS
GRAND ISLAND   SUNNY     61  36  39 E10       30.20F
KEARNEY        SUNNY     58  37  45 NE6       30.21F
HASTINGS       SUNNY     61  38  42 NE9G18    30.20F
ORD            SUNNY     59  33  37 VRB7      30.20F
YORK             N/A     63  32  31 E8G23     30.19F
AURORA         SUNNY     62  32  32 E9        30.19F
LEXINGTON      PTSUNNY   55  40  58 N3        30.22F
HOLDREGE       MOSUNNY   54  39  57 NE3       30.21F
HEBRON         CLOUDY    61  34  36 NE14      30.18F

...NEBRASKA PANHANDLE...

CITY           SKY/WX    TMP DP  RH WIND       PRES   REMARKS
CHADRON        MOSUNNY   59  40  49 CALM      30.13F
ALLIANCE       SUNNY     53  41  63 VRB5      30.16F
SCOTTSBLUFF    SUNNY     54  42  64 VRB3      30.16F
SIDNEY         PTSUNNY   53  32  44 NW5       30.18F

...WESTERN AND NORTH CENTRAL NEBRASKA...

CITY           SKY/WX    TMP DP  RH WIND       PRES   REMARKS
VALENTINE      SUNNY     58  37  45 S10       30.19F
AINSWORTH      MOSUNNY   56  38  50 S10G17    30.21F
ONEILL         SUNNY     61  28  28 SE8       30.23F
BROKEN BOW     PTSUNNY   56  40  55 SE8       30.22F
IMPERIAL       CLOUDY    50  37  61 E5        30.21F
NORTH PLATTE   PTSUNNY   56  38  50 S6        30.21F
MCCOOK         PTSUNNY   54  39  57 SE9       30.21F

...EASTERN NEBRASKA...

CITY           SKY/WX    TMP DP  RH WIND       PRES   REMARKS
NORFOLK        SUNNY     63  30  28 VRB3      30.20F
SO SIOUX CITY  SUNNY     66  30  26 E8        30.22F
TEKAMAH        CLOUDY    66  29  24 N9        30.20F
COLUMBUS       SUNNY     65  32  29 E12G21    30.20F
ALBION         SUNNY     62  32  32 E6        30.21F
OMAHA EPPLEY   MOSUNNY   70  32  24 NE12      30.18F
MILLARD        MOSUNNY   67  33  27 NE6       30.18F
LINCOLN        CLOUDY    64  34  32 NE10G20   30.20F
NEBRASKA CITY  CLOUDY    65  35  33 NE8       30.16F
BEATRICE       CLOUDY    62  39  44 N13       30.17F
FALLS CITY     SUNNY     64  39  39 VRB3      30.14F

...NORTHERN KANSAS...

CITY           SKY/WX    TMP DP  RH WIND       PRES   REMARKS
GOODLAND       CLOUDY    50  36  58 E6        30.20F
HILL CITY      MOSUNNY   56  41  57 VRB6      30.21F
NORTON         CLEAR     59  39  47 CALM      30.21F
PHILLIPSBURG   SUNNY     61  36  39 CALM      30.20F
SMITH CENTER   SUNNY     61  36  39 NE8G16    30.19F
BELOIT         CLOUDY    54  37  54 N15       30.18F
HAYS           SUNNY     60  38  43 N13       30.18F
RUSSELL        PTSUNNY   60  37  42 NE16G22   30.16F
CONCORDIA      CLOUDY    58  38  47 N15G26    30.17F
SALINA         CLOUDY    59  41  51 N18       30.15F
TOPEKA         CLOUDY    62  51  67 N12       30.11F



USA.gov is the U.S. government's official web portal to all federal, state and local government web resources and services.